sat.trackr.live / text

‹ back to catalog

SES-14

NORAD 43175 · 2018-012B

PAYLOAD ACTIVE UNKNOWN

§ Identity

Operator
Country
SES
Launch date
2018-01-25
Launch site
FRGUI
Launch vehicle
Mass (kg)
RCS (m²)

Purposes: comms

External: N2YO · Heavens-Above · Gunter

§ Orbital elements

Epoch: 2026-09-11T23:59:39.299424Z

Period
1,436.10 min
Inclination
0.0232°
Eccentricity
0.0001092
Mean motion
1.00271871 rev/d
Perigee alt
35,782.0 km
Apogee alt
35,791.2 km
Semi-major
42,164.7 km
B*
0.0000e+0
RAAN
64.5852°
Arg perigee
103.1240°
Mean anomaly
135.7197°
Rev number
789

§ Raw data

SES-141 43175U 18012B   26254.99976041 -.00000294  00000+0  00000+0 0  99902 43175   0.0232  64.5852 0001092 103.1240 135.7197  1.00271871  7896

JSON: /api/v1/satellites/43175 · /tle

For live sub-satellite position, see the globe view (requires WebGL).

§ Visibility from observer

Set your observer location to see the next 7 days of passes ≥ 10°. The values pass through the URL so the page stays shareable.

No JS? Fill the form by hand. The geolocation button needs JavaScript.